FENGYUN 1C DEB, 30313

Orbit data source: Space-Track

FENGYUN 1C DEB, 30313 is space debris in SSO originally from a launch on Mon, 10 May 1999 UTC launched from the Taiyaun Space Center, China (TSC). Fengyun 1C debris stems from the Chinese weather satellite Fengyun-1C, which was intentionally destroyed by a Chinese anti-satellite missile in 2007. This event dramatically increased the amount of space debris, with thousands of trackable fragments posing hazards to satellites and human spaceflight. The Fengyun 1C debris cloud has become a focal point in discussions about space sustainability and the need for international regulations to prevent the creation of new debris.

Loading next visibility...
Identifier
30313, 1999-025AAA
Orbit
SSO
Country
Flag of CNCN / PRC
Related business
Manufacturer
Unknown
Mission
Spacecraft
Bus & Motor
Unknown
Mass
Unknown
Launch date (UTC)
1999-05-10 (26 years ago)
Launch vehicle
Unknown
Launch site
Taiyaun Space Center, China (TSC)
Object type
Payload
Rocket body
Debris
Shape & HBR
Unknown shape, 0.1 m
Radar Cross Section
Small (<0.1 m²)

Expand to show TLE details & history
Last TLE update: 7 hours ago

TLE from 7 hours ago
0 FENGYUN 1C DEB
1 30313U 99025AAA 25299.17535274  .00005457  00000-0  23113-2 0  9999
2 30313  98.8767  24.7992 0059712 115.7075 302.5728 14.24882284964122
Epoch: 2025-10-26T04:12Z
TLE epoch observation values (Epoch: 2025-10-26T04:12:30.476Z)
Latitude
56.73184°
Longitude
-86.81982°
Altitude
795.419 km
Speed
7.473 km/s
True Right ascension
00h 44m 24s
True Declination
56° 34' 29"
Sunlit
Object was in full shadow at epoch
Visualization orbit readout
Latitude
Unknown
Longitude
Unknown
Altitude
Unknown
Speed
Unknown
Apparent Right ascension
Unknown
Apparent Declination
Unknown
Sunlit
N/A
Visualization observer readout
Local Sidereal Time
06:53:08
Azimuth
Unknown
Elevation
Unknown
Doppler factor
Unknown
Orbital elements
Apogee altitude
848.947 km
Perigee altitude
763.15 km
Semi-major axis
7,184.185 km
Eccentricity
0.00597
Inclination
98.8767°
RAAN
24.7992°
Arg. of periapsis
115.7075°
True anomaly
301.99386°
Mean anomaly
302.5728°
Eccentric anomaly
302.28356°
Mean motion
3.56432 °/min
Orbital period
101 mins
BSTAR
0.0023113
Loading maneuver chart data...
Computing Atmospheric mass density...

Documentation

Showing up to 5 results
|